Погода в Машковичах

Россия / Тульская область     54°11′23″N   36°16′33″E
темп.,
°C
ветер,
м/с
пор.,
м/с
влажн.,
%
обл.,
%
осадки,
мм/ч
давл.,
гПа
погр.,
м
11 апреля, вс
вс1100:00+3ююз33700 0.0 102653
03:00+2юз23740 0.0 102748
06:00+1ююз22790 0.0 102821
09:00+7ююз23600 0.0 1030261
12:00+12ююз22450 0.0 1030784
15:00+14ю11400 0.0 10291219
18:00+13вюв22510 0.0 102921
21:00+8в22640 0.0 103112
12 апреля, пн
пн1200:00+6в226914 0.0 103226
03:00+5в2375100 0.0 103247
06:00+4всв31179100 0.0 1032222
09:00+8в51456100 0.0 1031565
12:00+11в5962100 0.0 1029673
15:00+13вюв5766100 0.0 1028725
18:00+13в4872100 0.0 1027601
21:00+10в41190100 0.0 1026267
13 апреля, вт
вт1300:00+9вюв41190100 0.0 1025242
03:00+8юв3108812 0.0 1025175
06:00+7юв3986100 0.0 1024157
09:00+12ююв4867100 0.0 1024307
12:00+17ююв5748100 0.0 1024717
15:00+19ююв574388 0.0 10231662
18:00+17ююв48516 0.0 1022287
21:00+12вюв376763 0.0 1022108
14 апреля, ср
ср1400:00+11юв412675 0.0 1022235
03:00+9ююв387491 0.0 1022155
06:00+8юв247991 0.0 102161
09:00+13юв356295 0.0 1020263
12:00+17ююв574499 0.0 10191039
15:00+19ююв4634100 0.0 10181655
18:00+16юв3552100 0.0 1017107
21:00+12юв345696 0.0 101758
15 апреля, чт
чт1500:00+10ю2268100 0.0 101712
03:00+9з2288100 0.0 101715
06:00+9в1182100 0.0 101710
09:00+13вюв246488 0.0 1016291
12:00+17ю464565 0.0 10151752
15:00+16юв3553100 0.0 1015465
18:00+15в115995 0.0 101412
21:00+12в2268100 0.0 101412